This is the latest recevied weather packets stored in our database for station/object N2RDT. If no packets are shown the sender has not sent any weather packets the latest 10 day(s).
| Time | Temp. | Humidity | Pressure | Rain* | Wind** | Luminosity | Snow |
|---|---|---|---|---|---|---|---|
| 1777653588 | 17.22° C | 47% | 1016 hPa | 0 mm | - | 1037 W/m² | - |
| 1777653284 | 16.67° C | 50% | 1016 hPa | 0 mm | - | 997 W/m² | - |
| 1777652981 | 16.67° C | 47% | 1016.2 hPa | 0 mm | - | 1066 W/m² | - |
| 1777652678 | 16.11° C | 48% | 1016.2 hPa | 0 mm | - | 535 W/m² | - |
| 1777652375 | 16.11° C | 49% | 1016.2 hPa | 0 mm | - | 584 W/m² | - |
| 1777652071 | 15.56° C | 51% | 1016.5 hPa | 0 mm | - | 415 W/m² | - |
| 1777651768 | 15.56° C | 51% | 1016.4 hPa | 0 mm | - | 568 W/m² | - |
| 1777651465 | 15° C | 50% | 1016.3 hPa | 0 mm | - | 470 W/m² | - |
| 1777651163 | 15.56° C | 50% | 1016.2 hPa | 0 mm | - | 423 W/m² | - |
| 1777650860 | 15.56° C | 48% | 1016.5 hPa | 0 mm | - | 682 W/m² | - |
| 1777650556 | 15° C | 53% | 1016.4 hPa | 0 mm | - | 485 W/m² | - |
| 1777650254 | 14.44° C | 54% | 1016.3 hPa | 0 mm | - | 421 W/m² | - |
| 1777649950 | 14.44° C | 52% | 1016.4 hPa | 0 mm | - | 151 W/m² | - |
| 1777649648 | 14.44° C | 50% | 1016.6 hPa | 0 mm | - | 148 W/m² | - |
| 1777649343 | 15° C | 48% | 1016.7 hPa | 0 mm | - | 238 W/m² | - |
| 1777649041 | 16.11° C | 48% | 1016.5 hPa | 0 mm | - | 393 W/m² | - |
| 1777648739 | 15.56° C | 49% | 1016.6 hPa | 0 mm | - | 585 W/m² | - |
| 1777648435 | 15.56° C | 48% | 1016.4 hPa | 0 mm | - | 663 W/m² | - |
| 1777648131 | 15° C | 49% | 1016.5 hPa | 0 mm | - | 603 W/m² | - |
| 1777647827 | 15.56° C | 49% | 1016.5 hPa | 0 mm | - | 797 W/m² | - |
| 1777647524 | 15° C | 47% | 1016.4 hPa | 0 mm | - | 868 W/m² | - |
| 1777647221 | 16.11° C | 47% | 1016.4 hPa | 0 mm | - | 785 W/m² | - |
| 1777646918 | 15.56° C | 50% | 1016.4 hPa | 0 mm | - | 809 W/m² | - |
| 1777646613 | 14.44° C | 52% | 1016.2 hPa | 0 mm | - | 735 W/m² | - |
| 1777646310 | 14.44° C | 53% | 1016.3 hPa | 0 mm | - | 451 W/m² | - |
* Rain latest hour (hover to see other rain measurements)
** Current wind speed in m/s (hover to see current wind gust speed)